Location: Krasnoyarskiy Pitomnik
(51.1333°N, 71.6167°E)
Time: 10:20:58
(UTC+00:00)

Cosmos 1892 - Pass Details

Date: 22 October 2021
Orbit: 501 x 522 km, 82.5° (Epoch: 06 December)

Event Time Altitude Azimuth Distance (km) Brightness Sun altitude
Rises 12:56:23 0° 2° (N) 2,626 6.2 -8.5°
Reaches altitude 10° 12:59:12 10° 25° (NNE) 1,731 5.1 -8.9°
Maximum altitude 13:01:37 16° 65° (ENE) 1,379 4.3 -9.3°
Enters shadow 13:03:17 13° 95° (E) 1,545 4.5 -9.6°
